Location: Clery
(49.9570°N, 2.8873°E)
Time: 04:23:57
(UTC+00:00)

Daily predictions for brighter satellites

Satellite Brightness Start Highest point End
(mag) Time Altitude Azimuth Time Altitude Azimuth Time Altitude Azimuth
COSMOS 2406 4.4 00:00:23 10° NNW 00:05:40 37° NE 00:08:16 25° E
Cosmos 1486 Rocket 4.1 00:09:08 71° NW 00:09:08 71° NW 00:14:20 10° NNE
Cosmos 2327 Rocket 4.4 00:03:01 10° N 00:09:19 84° E 00:09:56 74° SSE
Cosmos 1844 3.7 00:09:36 69° E 00:09:36 69° E 00:15:05 10° NNE
Meteor 1-27 Rocket 4.1 00:13:49 52° E 00:13:56 52° E 00:19:30 10° NNE
Cosmos 1812 4.3 00:16:39 33° NNW 00:16:39 33° NNW 00:19:00 10° N
Meteor 1-11 Rocket 3.7 00:10:18 10° NNW 00:16:15 85° ENE 00:16:35 79° SE
Lacrosse 5 rocket 4.1 00:13:04 10° WNW 00:13:16 11° WNW 00:13:16 11° WNW
Cosmos 2341 Rocket 4.4 00:11:23 10° N 00:17:39 57° ENE 00:19:02 47° ESE
Cosmos 1869 Rocket 4.3 00:15:17 10° N 00:18:40 51° N 00:18:40 51° N
Cosmos 1536 4.0 00:17:54 10° N 00:20:46 42° NNE 00:20:46 42° NNE
Cosmos 1515 Rocket 4.5 00:23:14 44° NW 00:23:14 44° NW 00:26:45 10° N
SJ 16-02 3.4 00:25:14 20° E 00:25:14 20° E 00:27:48 10° NE
Cosmos 1295 Rocket 4.3 00:21:55 10° N 00:28:12 82° W 00:28:47 74° SSW
Cosmos 1241 Rocket 4.4 00:29:34 71° S 00:30:18 81° SE 00:36:57 10° NE
Cosmos 2074 Rocket 4.5 00:28:24 10° NNW 00:34:18 44° W 00:34:36 44° W
Cosmos 2263 Rocket 4.1 00:32:09 15° W 00:35:18 23° NW 00:39:41 10° NNE
Cosmos 1743 4.1 00:35:10 10° N 00:37:47 37° NNE 00:37:47 37° NNE
Cosmos 1340 Rocket 3.8 00:40:18 10° N 00:43:30 46° NNE 00:43:30 46° NNE
Cosmos 1707 Rocket 4.2 00:45:26 49° ENE 00:45:26 49° ENE 00:49:01 10° NNE
Meteor 1-10 Rocket 4.3 00:45:16 60° W 00:45:30 60° WNW 00:51:01 10° N
Cosmos 962 Rocket 4.3 00:40:08 10° N 00:46:22 85° W 00:47:07 71° S
Cosmos 1844 Rocket 2.9 00:46:55 53° W 00:47:34 56° NW 00:53:05 10° NNE
Cosmos 1503 Rocket 4.4 00:55:54 50° WNW 00:56:10 51° WNW 01:01:15 10° NNE
CZ-4 R/B 3.8 00:53:48 10° NNE 00:58:52 88° ESE 00:58:53 88° ESE
USA 305 3.4 01:00:27 57° N 01:00:27 57° N 01:04:26 10° ENE
Resurs 1-4 Rocket 2.8 00:55:20 10° NNE 01:00:19 41° E 01:01:06 39° ESE
Cosmos 1271 Rocket 4.0 01:02:29 36° NNW 01:02:29 36° NNW 01:05:16 10° N
Nadezhda 1 Rocket 4.3 01:00:28 47° WSW 01:01:32 52° WNW 01:07:46 10° N
SL-4 R/B 3.2 01:05:32 41° ESE 01:05:32 41° ESE 01:08:42 10° ESE
Cosmos 2082 Rocket 2.9 00:58:46 10° NNW 01:04:16 50° NE 01:08:15 18° ESE
Cosmos 2218 Rocket 3.9 00:59:16 10° N 01:05:27 81° E 01:06:59 54° SSE
Cosmos 1959 Rocket 4.5 01:01:28 10° N 01:07:52 81° E 01:09:34 52° SSE
CZ-4C R/B 3.1 01:03:07 10° NW 01:10:04 69° NE 01:18:15 10° SE
Cosmos 1833 Rocket 2.6 01:04:44 10° NNW 01:10:26 89° WSW 01:11:25 63° SSE
Cosmos 158 Rocket 3.9 01:06:09 10° NNW 01:11:07 72° ENE 01:11:43 63° ESE
Cosmos 923 Rocket 4.5 01:06:05 10° NNW 01:11:14 57° ENE 01:13:16 35° ESE
Cosmos 2366 rocket 3.9 01:07:27 10° N 01:13:39 88° E 01:15:08 55° S
Helios 1B rocket 3.1 01:11:05 10° NNE 01:14:52 48° E 01:14:52 48° E
CZ-2D R/B 2.6 01:09:43 10° NNE 01:15:08 54° E 01:16:15 46° SE
USA 306 3.5 01:17:35 49° NW 01:18:07 53° N 01:22:21 10° ENE
MOZ.5/SAFIR/RUBIN 5/SL-8 3.9 01:20:48 58° WNW 01:20:48 58° WNW 01:24:59 10° NNW
SL-16 R/B 2.5 01:19:17 44° SSE 01:21:28 87° ENE 01:27:47 10° NNW
Cosmos 1908 Rocket 4.3 01:19:48 10° N 01:24:08 48° ENE 01:25:07 41° ESE
USA 281 4.1 01:24:57 30° W 01:24:57 30° W 01:30:22 10° NW
Cosmos 2228 Rocket 4.5 01:26:04 27° WNW 01:26:04 27° WNW 01:29:34 10° N
EO 1 Delta rocket 4.3 01:27:01 45° WNW 01:27:01 45° WNW 01:31:01 10° NNW
Cosmos 1777 Rocket 4.0 01:26:43 61° W 01:27:18 66° WNW 01:32:31 10° NNE
Cosmos 1733 Rocket 3.4 01:26:21 10° NNW 01:30:04 53° WNW 01:30:04 53° WNW
Cosmos 2278 Rocket 2.2 01:30:00 55° S 01:31:05 69° ESE 01:36:44 10° NNE
Cosmos 1943 Rocket 4.5 01:29:20 10° SE 01:32:28 15° E 01:35:36 10° ENE
ADEOS II 3.2 01:28:10 10° NNE 01:33:03 37° E 01:35:02 27° SE
Landsat 4 4.4 01:31:36 10° NNE 01:35:01 46° E 01:35:01 46° E
USA 307 3.6 01:34:31 38° NW 01:35:45 50° N 01:39:58 10° ENE
Gblst 52 Del rocket 4.2 01:38:36 50° SW 01:40:14 79° SSE 01:45:56 10° ENE
Meteor 2-9 Rocket 4.2 01:35:30 10° NNW 01:41:22 75° W 01:42:55 50° SSW
ATLAS 5 CENTAUR R/B 2.4 01:41:33 10° NW 01:46:58 55° SW 01:48:21 46° SSW
Cosmos 1238 Rocket 4.3 01:41:40 10° NNW 01:47:46 50° W 01:49:14 43° SW
USA 308 3.7 01:46:45 30° WNW 01:48:32 49° N 01:52:44 10° ENE
Gbstr 26 Del rocket 3.6 01:46:45 47° WSW 01:48:33 81° SSE 01:53:45 10° ENE
COSMOS 2406 3.4 01:44:42 10° NW 01:50:06 46° WSW 01:50:17 46° WSW
Cosmos 2112 Rocket 4.1 01:45:38 10° NNW 01:50:58 78° ENE 01:54:18 24° SSE
Cosmos 1703 Rocket 4.0 01:51:28 43° SE 01:52:28 53° E 01:56:42 10° NNE
Cosmos 1782 Rocket 4.2 01:48:32 10° N 01:52:57 53° ENE 01:55:05 28° SE
NOSS 3-4 (A) 3.9 01:47:18 10° NW 01:54:10 77° NE 02:01:52 10° SE
NOSS 3-4 (C) 4.0 01:47:24 10° NW 01:54:16 76° NE 02:01:59 10° SE
Meteor 1-29 3.2 01:52:25 10° NNE 01:55:23 64° NE 01:55:23 64° NE
Cosmos 1862 Rocket 3.8 01:55:35 53° W 01:55:47 53° WNW 02:00:06 10° N
NPP 3.6 01:50:36 10° NNE 01:56:02 89° WNW 01:57:40 47° SSW
IDEFIX/ARIANE 42P 4.1 01:51:31 10° NNE 01:56:07 31° E 01:59:37 15° SSE
IRS-1D 4.2 01:53:28 10° NNE 01:58:31 51° E 02:00:56 29° SSE
X-37B 3.4 02:00:54 11° ESE 02:00:54 11° ESE 02:01:09 10° ESE
UNK 4.0 01:59:33 49° WSW 01:59:37 49° W 02:04:08 10° NNW
Cosmos 1975 3.1 01:56:25 10° NNW 01:59:59 52° WNW 01:59:59 52° WNW
Okean 1 4.0 02:01:45 40° WNW 02:01:45 40° WNW 02:05:30 10° N
SJ 16-02 1.7 02:02:12 48° W 02:02:45 51° WNW 02:07:06 10° NNE
NOSS 3-3 (A) 3.9 02:02:18 42° SW 02:04:32 88° NW 02:11:19 10° NE
NOSS 3-3 (C) 3.9 02:02:25 42° SW 02:04:38 88° NW 02:11:25 10° NE
ATLAS 2AS CENTAUR R/B 3.3 02:01:03 10° NW 02:08:33 64° NE 02:15:27 10° ESE
Okean 1-7 3.0 02:09:59 50° S 02:11:03 79° E 02:15:19 10° NNE
Cosmos 1378 3.8 02:18:53 32° SSE 02:20:09 48° E 02:23:44 10° NNE
ERBS 3.8 02:22:49 24° NW 02:23:56 31° NNW 02:26:57 10° NE
Cosmos 1680 Rocket 3.7 02:19:57 10° NNW 02:25:05 51° WSW 02:27:05 33° SSW
CZ-4C R/B 3.5 02:23:10 28° SSE 02:25:27 87° WSW 02:29:55 10° NNW
Cosmos 489 Rocket 4.4 02:20:12 10° NNW 02:26:27 89° WSW 02:32:40 10° SSE
ADEOS Rocket 3.2 02:21:37 10° SSE 02:28:07 88° WSW 02:35:25 10° NNW
Meteor 1-13 Rocket 4.3 02:34:31 22° S 02:38:22 81° E 02:44:04 10° NNE
BREEZE-M R/B 3.8 02:36:09 23° W 02:39:06 89° S 02:48:27 10° E
Meteor 1-12 Rocket 4.3 02:33:51 10° NNW 02:39:53 76° W 02:45:21 12° S
Resurs 1-4 Rocket 3.0 02:35:21 10° N 02:40:04 34° WNW 02:42:11 25° WSW
Cosmos 1805 3.8 02:36:16 10° N 02:40:09 59° ENE 02:44:01 10° SSE
USA 305 3.7 02:36:30 11° WNW 02:40:36 51° N 02:44:48 10° E
Meteor 2-4 Rocket 4.0 02:38:27 29° SW 02:41:21 56° WNW 02:47:09 10° N
CREW DRAGON DEMO-1 DEB 2.5 02:41:32 71° NW 02:41:40 74° NNW 02:44:23 10° ENE
SL-4 R/B 2.8 02:41:12 25° W 02:43:22 39° SW 02:47:48 10° SSE
Sich 1 Rocket 3.6 02:39:31 10° N 02:44:08 87° E 02:48:26 12° S
USA 234 3.4 02:38:31 10° ENE 02:45:04 69° SE 02:49:15 24° SW
Cosmos 2242 Rocket 4.1 02:46:16 31° WSW 02:47:41 41° WNW 02:51:53 10° N
Cosmos 2082 Rocket 2.9 02:43:13 10° NW 02:48:09 32° WSW 02:50:01 26° SW
Helios 1B rocket 4.1 02:46:59 10° NNW 02:50:03 20° WNW 02:51:10 18° W
Cosmos 1833 Rocket 4.3 02:50:11 10° WNW 02:53:04 16° W 02:53:04 16° W
CZ-2C R/B 4.3 02:49:35 10° NE 02:53:37 26° E 02:57:44 10° SSE
Cosmos 1356 Rocket 3.3 02:50:43 10° NNW 02:54:50 76° W 02:58:36 13° S
CZ-2D R/B 3.3 02:50:15 10° N 02:54:54 29° WNW 02:57:34 19° WSW
Cosmos 990 Rocket 4.4 02:52:34 26° WSW 02:55:13 49° WNW 03:00:19 10° NNE
USA 306 3.6 02:54:18 10° WNW 02:58:33 55° NNE 03:02:47 10° E
CZ-4C R/B 3.4 02:51:52 10° NW 02:58:36 40° WSW 03:06:12 10° S
Meteor 1-28 Rocket 3.9 02:58:47 30° WSW 02:59:28 32° W 03:02:52 10° NNW
MSX 4.0 02:53:43 10° NNE 02:59:30 73° ESE 03:05:02 11° S
IRS-P3 4.2 02:56:23 10° NNE 03:01:47 85° ESE 03:06:22 14° SSW
SL-24 R/B - RUBIN 2 4.4 02:57:44 10° NW 03:03:30 68° NE 03:08:30 10° SE
SL-16 R/B 3.9 03:04:22 18° WSW 03:05:52 19° W 03:10:12 10° NW
Cosmos 1937 Rocket 3.6 03:05:39 22° SW 03:08:54 60° WNW 03:14:00 10° NNE
Cosmos 1726 4.5 03:05:58 10° NNE 03:09:09 26° ENE 03:12:20 10° SE
Cosmos 2084 3.4 03:08:33 24° SW 03:10:59 80° NW 03:15:19 10° NE
ARIANE 5 R/B 2.6 03:05:54 10° NNE 03:11:11 82° ESE 03:16:19 10° SSW
ARGOS Delta rocket 4.4 03:07:35 10° N 03:11:38 35° WNW 03:13:55 21° WSW
ADEOS II 2.8 03:07:55 10° N 03:12:44 38° WNW 03:15:59 19° WSW
Cosmos 2344 4.4 03:06:13 10° NW 03:15:11 82° NE 03:27:45 10° SE
Cosmos 1943 Rocket 2.2 03:10:44 16° SSW 03:15:21 84° ESE 03:21:02 10° NNE
Cosmos 1898 Rocket 4.1 03:12:11 20° WSW 03:15:27 42° WNW 03:20:31 10° NNE
Cosmos 2278 Rocket 3.5 03:11:50 14° W 03:15:42 28° NW 03:20:31 10° NNE
USA 307 3.5 03:11:56 10° WNW 03:16:12 59° NNE 03:20:27 10° E
Cosmos 494 Rocket 4.5 03:13:48 10° NNW 03:19:03 64° ENE 03:24:13 10° SE
Cosmos 44 3.8 03:15:38 10° NW 03:21:08 75° NE 03:26:27 10° SE
Cosmos 1842 4.0 03:18:53 10° S 03:22:38 52° E 03:26:26 10° NNE
Spot 4 Rocket 4.4 03:18:28 10° NNE 03:23:38 68° ESE 03:28:46 10° S
GP-B 4.3 03:20:06 10° NNE 03:24:23 45° E 03:28:38 10° SSE
Meteor 1-15 Rocket 4.4 03:20:36 10° NNW 03:26:00 53° W 03:31:25 10° S
Cosmos 1066 Rocket 4.5 03:21:51 13° SSW 03:26:57 59° WNW 03:32:45 10° N
USA 308 3.3 03:24:40 10° WNW 03:28:57 64° NNE 03:33:13 10° E
Cosmos 2298 Rocket 4.5 03:25:31 10° S 03:30:45 63° ESE 03:36:01 10° NNE
Cosmos 372 Rocket 4.0 03:26:24 14° SSW 03:30:46 69° WNW 03:35:53 10° NNE
ATLAS 5 CENTAUR R/B 4.1 03:28:48 10° W 03:29:45 11° W 03:29:45 11° W
Gblst 52 Del rocket 4.4 03:26:07 10° W 03:32:08 76° N 03:37:40 10° E
CZ-2D R/B 3.4 03:30:22 10° NNE 03:34:30 79° WNW 03:38:43 10° SSW
Cosmos 2151 Rocket 3.7 03:30:08 10° NNW 03:34:35 55° W 03:39:00 10° S
X-37B 1.6 03:33:10 18° SW 03:35:00 33° S 03:37:54 10° ESE
Cosmos 1300 Rocket 4.3 03:31:28 10° NNW 03:35:30 35° W 03:39:32 10° SSW
Gbstr 26 Del rocket 3.6 03:29:57 10° W 03:35:47 72° N 03:40:26 10° E
IDEFIX/ARIANE 42P 3.1 03:30:55 10° N 03:35:51 44° WNW 03:40:26 12° SW
Okean 2 4.0 03:34:27 10° S 03:38:30 59° E 03:42:37 10° NNE
Okean 2 Rocket 3.6 03:34:46 10° NNW 03:38:54 39° W 03:43:00 10° SSW
Cosmos 2369 Rocket 2.4 03:34:57 10° SSW 03:40:31 75° ESE 03:46:09 10° NNE
CZ-3B R/B 3.8 03:25:18 12° SW 03:42:19 67° SSE 03:46:44 10° ENE
CZ-2C R/B 3.0 03:39:35 10° NNE 03:43:22 70° ESE 03:47:12 10° S
Meteor 1-23 Rocket 4.5 03:38:38 10° SSW 03:44:13 56° WNW 03:49:55 10° N
NOSS 3-4 (A) 4.5 03:38:36 10° NW 03:44:45 32° WSW 03:51:26 10° S
NOSS 3-4 (C) 4.5 03:38:42 10° NW 03:44:52 33° WSW 03:51:35 10° S
DNEPR-1 R/B 4.5 03:39:11 10° SSW 03:45:17 65° SE 03:50:19 10° NE
SL-24 R/B 4.2 03:44:43 10° SSE 03:48:37 65° ENE 03:52:16 10° N
Cosmos 2221 Rocket 4.2 03:44:56 10° SW 03:49:12 42° WNW 03:53:32 10° N
Cosmos 2297 4.2 03:44:40 12° SW 03:49:48 46° NW 03:55:19 10° NNE
BREEZE-M DEB (TANK) 3.5 03:49:48 13° WSW 03:50:59 19° SSW 03:53:23 10° SSE
Cosmos 1125 Rocket 3.8 03:46:41 10° SSW 03:51:56 69° ESE 03:57:10 10° NNE
Cosmos 1758 4.0 03:48:01 10° N 03:52:04 62° ENE 03:56:07 10° SSE
SL-08 R/B 4.2 03:50:11 10° SSW 03:54:29 30° W 03:58:46 10° NNW
Cosmos 1766 4.2 03:51:22 10° NNW 03:54:54 30° W 03:58:24 10° SSW
CZ-4B R/B 4.0 03:51:04 10° N 03:55:28 38° WNW 03:59:53 10° SW
ATLAS 2AS CENTAUR R/B 3.2 03:52:32 10° NW 03:59:13 40° WSW 04:05:26 10° S
H-2A R/B 3.9 03:56:09 10° SE 04:00:04 37° ENE 04:04:06 10° N
Cosmos 1802 Rocket 4.2 03:54:16 10° N 04:00:36 81° E 04:06:47 10° SSE
ERBS 4.4 03:57:59 10° NW 04:00:46 24° N 04:03:33 10° ENE
Okean 1 Rocket 3.2 03:58:20 10° NNW 04:02:45 58° W 04:07:06 10° S
FENGYUN 3A 4.0 04:01:11 10° NNE 04:06:35 71° ESE 04:11:57 10° S
CZ-4C R/B 3.6 04:05:00 10° SSE 04:08:26 63° ENE 04:11:48 10° N
Cosmos 2150 Rocket 4.2 04:03:59 10° SSW 04:09:25 72° WNW 04:14:51 10° NNE
Landsat 5 3.9 04:07:01 10° SSE 04:11:31 82° ENE 04:16:04 10° NNW
